sat.trackr.live / text

‹ back to catalog

STARLINK-35181

NORAD 65666 · 2025-211Q

PAYLOAD ACTIVE UNKNOWN

§ Identity

Operator
Country
US
Launch date
2025-09-19
Launch site
AFWTR
Launch vehicle
Mass (kg)
RCS (m²)

Purposes: comms

External: N2YO · Heavens-Above · Gunter

§ Orbital elements

Epoch: 2026-09-19T13:28:22.249632Z

Period
93.91 min
Inclination
97.2837°
Eccentricity
0.0000819
Mean motion
15.33445105 rev/d
Perigee alt
465.0 km
Apogee alt
466.1 km
Semi-major
6,843.7 km
B*
5.5396e-4
RAAN
302.8684°
Arg perigee
87.8857°
Mean anomaly
272.2480°
Rev number
5,638

§ Raw data

STARLINK-351811 65666U 25211Q   26262.56136863  .00017851  00000+0  55396-3 0  99982 65666  97.2837 302.8684 0000819  87.8857 272.2480 15.33445105 56387

JSON: /api/v1/satellites/65666 · /tle

For live sub-satellite position, see the globe view (requires WebGL).

§ Visibility from observer

Set your observer location to see the next 7 days of passes ≥ 10°. The values pass through the URL so the page stays shareable.

No JS? Fill the form by hand. The geolocation button needs JavaScript.